• In Sweden
  • List of Countries
  • For 7 days
  • Water Temperature
  • Satellite Maps
  • Weather Map
  • Weather Widgets
  • user-avatar
    Login

    Hourly Weather Carlisle

    Today, 24 September, Sunday

    Time Temperature Precipitation Wind Pressure Humidity
    00:00 +14°C° 0 mm 4 mps 760 mmHg 84%
    01:00 +13°C° 0 mm 4 mps 760 mmHg 84%
    02:00 +12°C° 0 mm 4 mps 760 mmHg 83%
    03:00 +12°C° 0 mm 4 mps 760 mmHg 83%
    04:00 +11°C° 0 mm 4 mps 760 mmHg 83%
    05:00 +11°C° 0 mm 4 mps 760 mmHg 83%
    06:00 +10°C° 0 mm 3 mps 760 mmHg 86%
    07:00 +12°C° 0 mm 4 mps 760 mmHg 83%
    08:00 +13°C° 0 mm 4 mps 760 mmHg 80%
    09:00 +15°C° 0 mm 4 mps 760 mmHg 76%
    10:00 +15°C° 0 mm 5 mps 760 mmHg 75%
    11:00 +16°C° 0 mm 5 mps 760 mmHg 73%
    12:00 +18°C° 0 mm 4 mps 761 mmHg 72%
    13:00 +18°C° 0.1 mm 4 mps 761 mmHg 74%
    14:00 +18°C° 0.1 mm 4 mps 761 mmHg 76%
    15:00 +18°C° 0.1 mm 3 mps 760 mmHg 79%
    16:00 +17°C° 0.1 mm 3 mps 761 mmHg 81%
    17:00 +17°C° 0.1 mm 3 mps 761 mmHg 83%
    18:00 +16°C° 0.1 mm 2 mps 761 mmHg 85%
    19:00 +16°C° 0.6 mm 2 mps 761 mmHg 86%
    20:00 +15°C° 0.6 mm 2 mps 761 mmHg 87%
    21:00 +15°C° 0.6 mm 2 mps 761 mmHg 87%
    22:00 +15°C° 1.3 mm 2 mps 761 mmHg 88%
    23:00 +15°C° 1.3 mm 2 mps 761 mmHg 90%

    Tomorrow, 25 September, Monday

    Time Temperature Precipitation Wind Pressure Humidity
    00:00 +14°C° 1.3 mm 2 mps 761 mmHg 91%
    01:00 +14°C° 0.8 mm 2 mps 761 mmHg 91%
    02:00 +14°C° 0.8 mm 2 mps 761 mmHg 92%
    03:00 +14°C° 0.8 mm 2 mps 761 mmHg 92%
    04:00 +14°C° 0.2 mm 2 mps 761 mmHg 93%
    05:00 +14°C° 0.2 mm 2 mps 761 mmHg 93%
    06:00 +14°C° 0.2 mm 2 mps 761 mmHg 94%
    07:00 +14°C° 0.6 mm 2 mps 762 mmHg 94%
    08:00 +15°C° 0.6 mm 2 mps 762 mmHg 94%
    09:00 +15°C° 0.6 mm 2 mps 762 mmHg 95%
    10:00 +15°C° 0.4 mm 2 mps 762 mmHg 94%
    11:00 +15°C° 0.4 mm 2 mps 763 mmHg 93%
    12:00 +15°C° 0.4 mm 2 mps 763 mmHg 93%
    13:00 +16°C° 0 mm 2 mps 763 mmHg 92%
    14:00 +16°C° 0 mm 2 mps 763 mmHg 91%
    15:00 +16°C° 0 mm 2 mps 763 mmHg 90%
    16:00 +16°C° 0 mm 2 mps 763 mmHg 91%
    17:00 +15°C° 0 mm 1 mps 763 mmHg 92%
    18:00 +15°C° 0 mm 1 mps 763 mmHg 94%
    19:00 +14°C° 0 mm 1 mps 764 mmHg 94%
    20:00 +14°C° 0 mm 1 mps 764 mmHg 95%
    21:00 +13°C° 0 mm 2 mps 764 mmHg 95%
    22:00 +13°C° 0 mm 1 mps 764 mmHg 95%
    23:00 +13°C° 0 mm 1 mps 764 mmHg 96%

    Day after tomorrow, 26 September, Tuesday

    Time Temperature Precipitation Wind Pressure Humidity
    00:00 +12°C° 0 mm 1 mps 764 mmHg 96%
    01:00 +12°C° 0 mm 1 mps 764 mmHg 96%
    02:00 +12°C° 0 mm 1 mps 764 mmHg 96%
    03:00 +12°C° 0 mm 1 mps 764 mmHg 96%
    04:00 +12°C° 0 mm 1 mps 764 mmHg 96%
    05:00 +11°C° 0 mm 1 mps 764 mmHg 96%
    06:00 +11°C° 0 mm 1 mps 764 mmHg 96%
    07:00 +13°C° 0 mm 2 mps 764 mmHg 94%
    08:00 +14°C° 0 mm 2 mps 764 mmHg 92%
    09:00 +15°C° 0 mm 2 mps 764 mmHg 90%
    10:00 +16°C° 0 mm 2 mps 764 mmHg 88%
    11:00 +17°C° 0 mm 2 mps 764 mmHg 85%
    12:00 +17°C° 0 mm 3 mps 764 mmHg 83%
    13:00 +17°C° 0 mm 3 mps 764 mmHg 83%
    14:00 +17°C° 0 mm 3 mps 764 mmHg 83%
    15:00 +17°C° 0 mm 3 mps 763 mmHg 83%
    16:00 +16°C° 0 mm 3 mps 763 mmHg 86%
    17:00 +16°C° 0 mm 2 mps 763 mmHg 90%
    18:00 +15°C° 0 mm 2 mps 763 mmHg 93%
    19:00 +14°C° 0 mm 2 mps 763 mmHg 94%
    20:00 +14°C° 0 mm 2 mps 764 mmHg 95%
    21:00 +14°C° 0 mm 2 mps 764 mmHg 95%
    22:00 +13°C° 0 mm 3 mps 763 mmHg 96%
    23:00 +12°C° 0 mm 3 mps 763 mmHg 96%

    27 September, Wednesday

    Time Temperature Precipitation Wind Pressure Humidity
    00:00 +12°C° 0 mm 3 mps 763 mmHg 96%
    01:00 +12°C° 0 mm 3 mps 763 mmHg 96%
    02:00 +12°C° 0 mm 3 mps 762 mmHg 96%
    03:00 +12°C° 0 mm 3 mps 762 mmHg 97%
    04:00 +12°C° 0 mm 3 mps 762 mmHg 96%
    05:00 +12°C° 0 mm 3 mps 762 mmHg 96%
    06:00 +12°C° 0 mm 3 mps 762 mmHg 96%
    07:00 +13°C° 0 mm 4 mps 762 mmHg 94%
    08:00 +14°C° 0 mm 4 mps 762 mmHg 91%
    09:00 +15°C° 0 mm 5 mps 762 mmHg 89%
    10:00 +16°C° 0 mm 5 mps 761 mmHg 87%
    11:00 +16°C° 0 mm 5 mps 761 mmHg 85%
    12:00 +17°C° 0 mm 6 mps 761 mmHg 84%
    13:00 +17°C° 0.1 mm 5 mps 760 mmHg 84%
    14:00 +17°C° 0.1 mm 5 mps 760 mmHg 84%
    15:00 +17°C° 0.1 mm 5 mps 760 mmHg 85%
    16:00 +16°C° 0.2 mm 5 mps 760 mmHg 86%
    17:00 +16°C° 0.2 mm 5 mps 759 mmHg 88%
    18:00 +15°C° 0.2 mm 4 mps 759 mmHg 90%
    19:00 +15°C° 0.5 mm 4 mps 759 mmHg 91%
    20:00 +15°C° 0.5 mm 4 mps 759 mmHg 93%
    21:00 +15°C° 0.5 mm 4 mps 759 mmHg 94%
    22:00 +15°C° 0.5 mm 4 mps 758 mmHg 94%
    23:00 +14°C° 0.5 mm 4 mps 758 mmHg 94%

    28 September, Thursday

    Time Temperature Precipitation Wind Pressure Humidity
    00:00 +14°C° 0.5 mm 4 mps 758 mmHg 94%
    01:00 +14°C° 0.4 mm 4 mps 758 mmHg 93%
    02:00 +13°C° 0.4 mm 4 mps 758 mmHg 92%
    03:00 +13°C° 0.4 mm 4 mps 758 mmHg 92%
    04:00 +13°C° 0.5 mm 4 mps 758 mmHg 92%
    05:00 +13°C° 0.5 mm 4 mps 758 mmHg 93%
    06:00 +13°C° 0.5 mm 4 mps 758 mmHg 94%
    07:00 +14°C° 0.3 mm 3 mps 759 mmHg 94%
    08:00 +14°C° 0.3 mm 3 mps 759 mmHg 94%
    09:00 +14°C° 0.3 mm 3 mps 759 mmHg 95%
    10:00 +15°C° 0.1 mm 2 mps 760 mmHg 94%
    11:00 +16°C° 0.1 mm 2 mps 760 mmHg 93%
    12:00 +16°C° 0.1 mm 2 mps 760 mmHg 91%
    13:00 +16°C° 0 mm 2 mps 760 mmHg 90%
    14:00 +17°C° 0 mm 2 mps 760 mmHg 88%
    15:00 +17°C° 0 mm 3 mps 760 mmHg 87%
    16:00 +16°C° 0 mm 2 mps 760 mmHg 89%
    17:00 +15°C° 0 mm 2 mps 760 mmHg 91%
    18:00 +13°C° 0 mm 2 mps 761 mmHg 94%
    19:00 +13°C° 0 mm 2 mps 761 mmHg 94%
    20:00 +12°C° 0 mm 2 mps 761 mmHg 95%
    21:00 +10°C° 0 mm 2 mps 761 mmHg 95%
    22:00 +10°C° 0 mm 2 mps 761 mmHg 94%
    23:00 +10°C° 0 mm 2 mps 761 mmHg 93%

    29 September, Friday

    Time Temperature Precipitation Wind Pressure Humidity
    00:00 +9°C° 0 mm 2 mps 761 mmHg 92%
    01:00 +9°C° 0 mm 2 mps 760 mmHg 90%
    02:00 +9°C° 0 mm 2 mps 760 mmHg 88%
    03:00 +9°C° 0 mm 2 mps 760 mmHg 86%
    04:00 +9°C° 0 mm 3 mps 759 mmHg 86%
    05:00 +9°C° 0 mm 3 mps 759 mmHg 87%
    06:00 +9°C° 0 mm 3 mps 759 mmHg 87%
    07:00 +10°C° 0 mm 3 mps 759 mmHg 86%
    08:00 +11°C° 0 mm 4 mps 759 mmHg 85%
    09:00 +12°C° 0 mm 4 mps 758 mmHg 84%
    10:00 +13°C° 0.3 mm 4 mps 758 mmHg 86%
    11:00 +13°C° 0.3 mm 5 mps 758 mmHg 88%
    12:00 +14°C° 0.3 mm 5 mps 758 mmHg 89%
    13:00 +14°C° 0.5 mm 5 mps 758 mmHg 90%
    14:00 +14°C° 0.5 mm 4 mps 758 mmHg 91%
    15:00 +14°C° 0.5 mm 4 mps 758 mmHg 93%
    16:00 +13°C° 0.4 mm 3 mps 758 mmHg 93%
    17:00 +13°C° 0.4 mm 3 mps 758 mmHg 94%
    18:00 +13°C° 0.4 mm 2 mps 758 mmHg 95%
    19:00 +13°C° 0.7 mm 2 mps 758 mmHg 94%
    20:00 +12°C° 0.7 mm 2 mps 759 mmHg 94%
    21:00 +12°C° 0.7 mm 1 mps 759 mmHg 93%
    22:00 +12°C° 0.4 mm 1 mps 759 mmHg 93%
    23:00 +11°C° 0.4 mm 1 mps 759 mmHg 93%
    Show more